Simultaneous Nadir Overpasses (SNOs) Predictions

Prediction of SNOs between GOES-15 and TERRA Satellite Orbit:

Table of predicted SNOs for the next 14.0 days since TLE Epoch: 11/30/2019
Index Date Time (GOES-15) GOES-15 Lat,Lon TERRA Lat,Lon Distance(km) Time Diff (sec)
1 11/30/2019 18:53:52 -0.17,-128.35 -0.61,-126.39 223.94 80
2 12/01/2019 07:17:56 0.15,-128.37 -0.50,-131.58 364.51 80
3 12/03/2019 07:05:44 0.15,-128.33 0.09,-128.61 32.35 80
4 12/05/2019 06:50:53 0.15,-128.29 0.74,-125.66 299.56 80
5 12/05/2019 19:14:47 -0.13,-128.25 0.40,-130.81 290.36 80
6 12/07/2019 18:59:56 -0.14,-128.21 -0.20,-127.84 41.17 80
7 12/09/2019 18:47:45 -0.14,-128.16 -0.86,-124.89 372.11 80
8 12/10/2019 07:11:47 0.12,-128.17 -0.30,-130.07 216.40 80
9 12/12/2019 06:56:56 0.13,-128.11 0.37,-127.12 113.59 80
10 12/12/2019 19:20:51 -0.11,-128.07 0.77,-132.27 477.36 80




NCC Satellite Simultaneous Nadir Overpasses (SNOs) Prediction Service
